Torna al catalogo

ORBCOMM FM 28

AttivoComunicazioniLEO
NORAD 25482·PAYLOAD·🇺🇸 United States

Lanciato Sep 23, 1998 da Cape Canaveral Space Force Station

Loading…

Prossimi Passaggi (prossime 24 ore)

TLE

AggiornatoSource: Space-Track

Epoca: Sep 14, 2026, 14:17 UTC

1 25482U 98053H   26257.59574903  .00000542  00000-0  21848-3 0  9997
2 25482  45.0042 207.7447 0004279  29.7423 330.3669 14.39316669463807

Traccia ORBCOMM FM 28 in tempo reale con AllMySat

Download on the App Store